www.pogodaiklimat.ru

Погода и климат >> Архив погоды >> Италия >> Катандзаро


ПОГОДА в Катандзаро

  • Прогноз погоды в Катандзаро
  • Монитор погоды в Катандзаро

АРХИВ ПОГОДЫ в Катандзаро

Время (UTC), дата Ветер
(напр.,м/с)
 
Видим.   Явления Облачность Т
(С)
Тd
(С)
f
(%)
Тe
(С)
Тes
(С)
Комфортность P
(гПа)
Po
(гПа)
Тmin
(С)
Tmax
(С)
R
(мм)
R24
(мм)
S
(см)
01 12.02 СЗ 6 н/о н/о +7.1 -1.9 53 +3 +3 1013.6 973.2
02 12.02 С 4 н/о н/о +6.5 -1.5 57 +3 +3 1014.3 973.8
03 12.02 СЗ 6 н/о н/о +6.8 -1.2 57 +3 +3 1014.6 974.1
04 12.02 СЗ 3 н/о н/о +6.3 -1.2 59 +4 +4 1014.7 974.2
05 12.02 СЗ 1 н/о н/о +6.4 -1.4 57 +6 +6 1015.4 974.8
06 12.02 З 3 н/о н/о +6.8 -2.7 51 +4 +4 1015.7 975.2 +5.6 1
07 12.02 СЗ 3 н/о н/о +7.1 -3.9 45 +5 +5 1016.3 975.8
08 12.02 СЗ 2 н/о н/о +7.9 -3.1 46 +7 +7 1016.9 976.5
09 12.02 СЗ 3 н/о н/о +8.6 -4.4 40 +7 +7 1017.4 977.1
10 12.02 З 2 н/о н/о +9.6 -4.2 37 +9 +9 1017.6 977.4
11 12.02 штиль 0 н/о н/о +9.8 -4.3 37 +10 +10 1017.8 977.6
12 12.02 СВ 1 н/о н/о +9.3 -4.1 39 +10 +10 1017.8 977.6
13 12.02 С 4 н/о н/о +10.1 -5.6 33 +8 +8 1017.6 977.4
14 12.02 С 5 н/о н/о +8.9 -5.9 35 +6 +6 1018.2 977.9
15 12.02 С 7 н/о н/о +9.4 -6.6 32 +6 +6 1018.7 978.4
16 12.02 С 4 н/о н/о +8.5 -7.4 32 +6 +6 1019.6 979.2
17 12.02 СЗ 5 н/о н/о +8.0 -8.2 31 +5 +5 1020.4 979.9
18 12.02 С 4 н/о н/о +7.4 -7.6 34 +5 +5 1021.7 981.0 +10.4
19 12.02 С 4 н/о н/о +7.0 -7.9 34 +5 +5 1022.3 981.6
20 12.02 СЗ 4 н/о н/о +6.7 -7.5 36 +4 +4 1022.8 982.0
21 12.02 СЗ 3 н/о н/о +6.4 -8.1 35 +4 +4 1023.0 982.2
22 12.02 З 2 н/о н/о +6.1 -7.6 37 +5 +5 1023.4 982.5
23 12.02 СЗ 3 н/о н/о +5.7 -8.4 35 +4 +4 1023.4 982.4
00 13.02 С 4 н/о н/о +5.5 -7.8 38 +2 +2 1023.5 982.5
01 13.02 З 2 н/о н/о +5.0 -8.3 38 +4 +4 1023.6 982.5
02 13.02 СЗ 3 н/о н/о +5.0 -7.6 40 +3 +3 1023.5 982.4
03 13.02 С 4 н/о н/о +4.9 -9.1 36 +2 +2 1023.5 982.4
04 13.02 С 3 н/о н/о +4.8 -8.8 37 +3 +3 1023.4 982.3
05 13.02 СЗ 4 н/о н/о +4.6 -8.0 40 +1 +1 1023.8 982.7
06 13.02 СЗ 3 н/о н/о +4.4 -7.5 42 +2 +2 1024.9 983.7 +4.3 305
07 13.02 СЗ 4 н/о н/о +3.3 -6.0 50 -0 -0 1026.4 984.9
08 13.02 СЗ 3 н/о н/о +3.7 -5.6 51 +1 +1 1026.1 984.8
09 13.02 С 7 н/о н/о +5.4 -9.0 35 +1 +1 1025.6 984.5
10 13.02 С 6 н/о н/о +6.2 -8.6 34 +2 +2 1025.6 984.6
11 13.02 СВ 5 н/о н/о +6.8 -8.9 32 +4 +4 1025.6 984.7
12 13.02 С 1 н/о н/о +6.5 -7.3 37 +6 +6 1024.9 984.0
13 13.02 С 4 н/о н/о +6.5 -8.8 33 +4 +4 1024.6 983.7
14 13.02 С 3 н/о н/о +6.6 -8.7 33 +4 +4 1024.8 983.9
15 13.02 С 4 н/о н/о +5.2 -7.8 38 +2 +2 1025.3 984.2
16 13.02 С 2 н/о н/о +5.2 -8.8 36 +3 +3 1025.9 984.8
17 13.02 С 6 н/о н/о +5.0 -10.1 33 +1 +1 1026.4 985.2
18 13.02 С 4 н/о н/о +4.2 -8.0 41 +1 +1 1026.4 985.1 +7.4
19 13.02 С 3 н/о н/о +4.2 -7.7 42 +1 +1 1026.8 985.5
20 13.02 С 3 н/о н/о +2.8 -4.7 58 -0 -0 1027.9 986.3
21 13.02 З 3 н/о н/о +2.8 -4.5 59 -1 -1 1027.8 986.2
22 13.02 СЗ 1 н/о н/о +3.5 -4.8 55 +3 +3 1027.8 986.3
23 13.02 СВ 1 н/о н/о +4.1 -5.8 48 +3 +3 1027.4 986.0
00 14.02 З 2 н/о н/о +3.3 -6.3 49 +2 +2 1027.6 986.1
01 14.02 ЮЗ 2 н/о н/о +3.4 -6.4 49 +1 +1 1027.1 985.7
02 14.02 З 2 н/о н/о +3.7 -7.3 44 +2 +2 1026.9 985.5
03 14.02 З 3 н/о н/о +3.0 -7.6 46 -0 -0 1027.4 985.9
04 14.02 З 5 н/о н/о +3.4 -8.4 42 -1 -1 1027.5 986.0
05 14.02 З 4 н/о н/о +4.2 -8.3 40 +1 +1 1027.2 985.9
06 14.02 З 6 н/о н/о +4.0 -7.9 42 -1 -1 1028.0 986.6 +2.6 10
07 14.02 З 4 н/о н/о +4.4 -7.2 43 +1 +1 1028.5 987.2
08 14.02 С 4 н/о н/о +5.7 -6.7 40 +3 +3 1028.5 987.3
09 14.02 З 3 н/о н/о +6.9 -6.2 39 +5 +5 1028.4 987.4
10 14.02 З 4 н/о н/о +8.4 -5.6 37 +6 +6 1028.9 988.1
11 14.02 З 7 н/о н/о +10.4 -5.3 33 +7 +7 1028.2 987.7
12 14.02 СЗ 4 н/о н/о +9.9 -4.6 36 +8 +8 1028.2 987.7
13 14.02 З 7 н/о н/о +10.2 -5.5 33 +7 +7 1027.9 987.4
14 14.02 З 9 н/о н/о +9.6 -2.2 44 +6 +6 1027.7 987.1
15 14.02 СЗ 7 н/о н/о +9.4 -0.3 51 +6 +6 1027.3 986.7
16 14.02 СЗ 7 н/о н/о +9.2 -0.2 52 +6 +6 1027.1 986.5
17 14.02 СЗ 12 н/о н/о +8.2 -0.2 55 +3 +3 1027.3 986.5
18 14.02 З 7 н/о н/о +8.1 +0.7 60 +4 +4 1027.5 986.7 +10.5
19 14.02 З 7 н/о н/о +7.8 +0.4 59 +4 +4 1027.3 986.5
20 14.02 СЗ 6 н/о н/о +7.8 +0.7 61 +4 +4 1027.0 986.2
21 14.02 СЗ 6 н/о н/о +7.8 +1.1 63 +4 +4 1026.8 986.0
22 14.02 СЗ 7 н/о н/о +8.2 +3.2 71 +4 +4 1026.5 985.8
23 14.02 СЗ 8 н/о н/о +8.2 +3.0 70 +4 +4 1026.3 985.6
00 15.02 С 2 н/о н/о +8.2 +0.3 57 +7 +7 1026.9 986.2
01 15.02 СЗ 3 н/о н/о +8.3 -1.9 49 +6 +6 1026.6 985.9
02 15.02 З 3 н/о н/о +8.6 -4.7 39 +7 +7 1025.9 985.3
03 15.02 СЗ 1 н/о н/о +8.7 -5.3 37 +9 +9 1025.9 985.3
04 15.02 СЗ 3 н/о н/о +8.7 -5.0 38 +7 +7 1025.7 985.1
05 15.02 СЗ 2 н/о н/о +8.2 -3.8 42 +7 +7 1025.7 985.0
06 15.02 штиль 0 н/о н/о +7.7 -3.6 45 +8 +8 1025.9 985.1 +7.4 0
07 15.02 ЮЗ 2 н/о н/о +8.4 -3.0 44 +7 +7 1026.0 985.3
08 15.02 СЗ 2 н/о н/о +8.5 -2.0 48 +8 +8 1026.1 985.4
09 15.02 З 3 н/о н/о +10.2 -1.9 43 +9 +9 1025.2 984.8
10 15.02 штиль 0 н/о н/о +10.7 -1.8 42 +11 +11 1025.2 984.9
11 15.02 ЮЗ 2 н/о н/о +11.1 -1.8 41 +11 +11 1024.5 984.3
12 15.02 Ю 2 н/о н/о +11.2 -3.4 36 +11 +11 1024.0 983.8
13 15.02 В 5 н/о н/о +8.0 +0.1 57 +5 +5 1024.0 983.3
14 15.02 СВ 4 н/о н/о +6.9 +0.9 66 +4 +4 1024.3 983.5
15 15.02 В 3 н/о н/о +5.9 +1.6 74 +3 +3 1025.0 984.0
16 15.02 С 1 н/о н/о +6.2 +1.7 73 +6 +6 1024.8 983.9
17 15.02 С 1 н/о н/о +6.0 -0.8 62 +5 +5 1025.0 984.1
18 15.02 С 1 н/о н/о +7.1 -3.9 45 +8 +8 1024.7 983.8 +11.5 0.4
19 15.02 В 3 н/о н/о +6.5 -3.3 50 +4 +4 1024.5 983.6
20 15.02 СВ 5 н/о н/о +5.5 -1.7 60 +1 +1 1025.3 984.2
21 15.02 С 1 н/о н/о +6.1 -2.1 56 +5 +5 1025.6 984.6
22 15.02 С 6 н/о н/о +5.5 -3.2 53 +1 +1 1025.7 984.6
23 15.02 С 8 н/о н/о +4.8 -2.0 61 -1 -1 1025.9 984.7
00 16.02 В 3 н/о н/о +5.8 -2.2 56 +3 +3 1026.2 985.1 0.2
01 16.02 СВ 3 н/о н/о +6.3 -3.2 51 +4 +4 1026.0 985.0
02 16.02 ЮВ 5 н/о н/о +6.6 -2.7 51 +3 +3 1025.7 984.8
03 16.02 СЗ 2 н/о н/о +6.3 -2.9 52 +5 +5 1026.1 985.1
04 16.02 ЮЗ 2 н/о н/о +5.7 -3.5 52 +4 +4 1026.3 985.2
05 16.02 С 2 н/о н/о +6.6 -4.9 44 +6 +6 1026.5 985.5
06 16.02 З 1 н/о н/о +5.8 -3.9 50 +5 +5 1026.9 985.8 +4.4 0.2 504
07 16.02 З 2 н/о н/о +6.0 -4.0 49 +4 +4 1027.6 986.6
08 16.02 ЮЗ 2 н/о н/о +7.5 -3.8 45 +7 +7 1027.9 987.0
09 16.02 З 2 н/о н/о +8.0 -3.0 46 +7 +7 1028.1 987.3
10 16.02 ЮЗ 1 н/о н/о +9.4 -2.7 43 +10 +10 1028.1 987.4
11 16.02 Ю 1 н/о н/о +10.2 -3.3 39 +10 +10 1027.9 987.4
12 16.02 В 3 н/о н/о +10.4 -2.7 40 +9 +9 1027.8 987.4
13 16.02 СВ 4 н/о н/о +9.4 -4.0 39 +7 +7 1027.9 987.3
14 16.02 ЮЗ 3 н/о н/о +10.3 -2.8 40 +9 +9 1027.7 987.2
15 16.02 ЮЗ 3 н/о н/о +10.4 -2.7 40 +9 +9 1027.6 987.1
16 16.02 ЮЗ 2 н/о н/о +10.2 -2.6 41 +10 +10 1027.6 987.1
17 16.02 З 1 н/о н/о +8.8 -2.0 47 +9 +9 1028.2 987.5
18 16.02 СЗ 2 н/о н/о +8.3 -1.9 49 +7 +7 1028.9 988.1 +11.3
19 16.02 СЗ 1 н/о н/о +7.6 -2.8 48 +7 +7 1029.1 988.2
20 16.02 СЗ 1 н/о н/о +7.3 -3.7 45 +8 +8 1029.3 988.3
21 16.02 С 1 н/о н/о +6.9 -3.8 46 +7 +7 1029.4 988.4
22 16.02 СЗ 1 н/о н/о +6.9 -2.7 50 +6 +6 1029.2 988.2
23 16.02 СЗ 3 н/о н/о +7.2 -2.4 50 +5 +5 1029.3 988.3
00 17.02 ЮВ 1 н/о н/о +6.6 -2.9 51 +6 +6 1029.4 988.3
01 17.02 СЗ 3 н/о н/о +6.4 -3.1 51 +4 +4 1029.1 988.0
02 17.02 СЗ 5 н/о н/о +6.5 -3.3 50 +3 +3 1028.9 987.8
03 17.02 СЗ 4 н/о н/о +6.5 -4.1 47 +3 +3 1028.6 987.5
04 17.02 СЗ 5 н/о н/о +6.7 -3.4 48 +3 +3 1028.5 987.5
05 17.02 СЗ 3 н/о н/о +6.6 -3.5 48 +4 +4 1028.9 987.8
06 17.02 СЗ 3 н/о н/о +7.0 -2.3 52 +5 +5 1029.2 988.2 +6.0 308
07 17.02 СЗ 3 н/о н/о +7.3 +0.4 62 +5 +5 1029.3 988.3
08 17.02 СЗ 3 н/о н/о +8.2 +1.9 64 +6 +6 1029.0 988.2
09 17.02 З 6 н/о н/о +9.3 +2.8 64 +6 +6 1029.1 988.4
10 17.02 З 5 н/о н/о +10.1 +2.8 60 +7 +7 1029.1 988.5
11 17.02 СВ 7 н/о н/о +10.9 +2.9 58 +8 +8 1028.5 988.1
12 17.02 З 7 н/о н/о +11.2 +1.1 50 +8 +8 1028.1 987.7
13 17.02 З 6 н/о н/о +11.1 +1.0 50 +9 +9 1027.6 987.2
14 17.02 З 2 н/о н/о +10.8 +1.0 51 +10 +10 1027.4 987.0
15 17.02 З 8 н/о н/о +10.4 +1.7 55 +7 +7 1027.3 986.8
16 17.02 З 5 н/о н/о +9.7 +0.7 53 +7 +7 1027.1 986.6
17 17.02 З 9 н/о н/о +8.8 +2.7 66 +4 +4 1027.6 986.9
18 17.02 СЗ 7 н/о н/о +8.5 +3.3 70 +5 +5 1027.7 987.0 +11.5
19 17.02 СЗ 5 н/о н/о +8.4 +2.3 65 +5 +5 1027.6 986.9
20 17.02 СЗ 7 н/о н/о +8.4 +1.0 60 +5 +5 1027.9 987.1
21 17.02 СЗ 6 н/о н/о +8.3 +2.7 68 +4 +4 1028.2 987.4
22 17.02 СЗ 6 н/о н/о +8.2 +2.8 69 +4 +4 1027.9 987.1
23 17.02 СЗ 6 н/о н/о +8.1 +1.8 64 +4 +4 1027.5 986.7
00 18.02 СЗ 7 н/о н/о +8.2 +1.3 62 +4 +4 1027.3 986.5
01 18.02 СЗ 5 н/о н/о +8.0 +0.6 60 +5 +5 1026.9 986.1
02 18.02 СЗ 7 н/о н/о +7.4 +1.6 67 +3 +3 1026.9 986.0
03 18.02 СЗ 4 н/о н/о +7.3 +2.3 71 +4 +4 1026.5 985.7
04 18.02 СЗ 6 н/о н/о +7.2 +2.0 70 +3 +3 1026.7 985.8
05 18.02 СЗ 6 н/о н/о +7.2 +2.0 70 +3 +3 1026.6 985.7
06 18.02 СЗ 7 н/о н/о +7.1 +1.7 68 +3 +3 1026.6 985.7 +6.9 111
07 18.02 СЗ 7 н/о н/о +7.6 +2.0 68 +3 +3 1026.8 986.0
08 18.02 СЗ 6 н/о н/о +8.5 +2.0 64 +5 +5 1026.5 985.8
09 18.02 З 4 н/о н/о +9.7 +2.2 60 +7 +7 1026.5 986.0
10 18.02 З 5 н/о н/о +10.5 +2.5 58 +8 +8 1026.5 986.1
11 18.02 З 5 н/о н/о +11.3 +3.0 57 +9 +9 1026.1 985.8
12 18.02 З 6 н/о н/о +11.8 +3.0 55 +9 +9 1025.2 985.0
13 18.02 З 5 н/о н/о +11.7 +2.3 52 +10 +10 1024.4 984.2
14 18.02 З 6 н/о н/о +11.9 +2.5 53 +10 +10 1024.2 984.1
15 18.02 З 6 н/о н/о +11.3 +2.5 55 +9 +9 1023.9 983.7
16 18.02 З 4 н/о н/о +10.5 +2.5 58 +8 +8 1023.7 983.4
17 18.02 З 5 н/о н/о +9.0 +2.9 66 +6 +6 1023.9 983.4
18 18.02 З 6 н/о н/о +8.5 +3.3 70 +5 +5 1024.3 983.7 +12.0
19 18.02 З 6 н/о н/о +8.4 +3.4 71 +5 +5 1024.3 983.7
20 18.02 З 7 н/о н/о +8.3 +2.7 68 +4 +4 1024.4 983.8
21 18.02 З 8 н/о н/о +8.2 +2.4 67 +4 +4 1024.6 983.9
22 18.02 СЗ 6 н/о н/о +8.0 +0.9 61 +4 +4 1024.3 983.6
23 18.02 З 6 н/о н/о +7.9 +1.4 63 +4 +4 1024.3 983.6
00 19.02 СЗ 7 н/о н/о +7.6 +1.8 67 +3 +3 1024.3 983.6
01 19.02 З 6 н/о н/о +7.4 +1.0 64 +3 +3 1024.3 983.5

 

Местоположение метеостанции Катандзаро (Италия): широта 38.90 долгота 16.60 высота над уровнем моря 343 м.

В архиве по умолчанию представлена погода в Катандзаро за последнюю неделю. Архивные данные за месяц целиком и за предыдущие месяцы, начиная с января 2011 года, Вы можете получить, выбрав интересующий диапазон дат из раскрывающегося списка и нажав кнопку "Ввод!".


*Определитесь, кто Вы:
робот инопланетянин человек

Внимание! Время в таблицах - всемирное. Для получения местного времени необходимо прибавить поправку, которая равна 1 ч.

Смотрите также архив погоды в соседних городах и на ближайших метеорологических станциях:

Погода в Серральта-ди-сан-Вито (Италия) (22 км)
Погода в Ламеция-Терме (Италия) (30 км)
Погода на Монте Скеро (Италия) (51 км)
Погода в Пунто Алисе (Италия) (74 км)
Погода в Бонифати (Италия) (98 км)
Погода на Капо Стартивенто (Италия) (118 км)
Погода в Мессине (Италия) (120 км)
Погода в Латронико (Италия) (140 км)
Погода на Острове Салина (Италия) (154 км)
Погода на Капо Палинуро (Италия) (168 км)

Пояснения к столбцам:

Ветер - указаны скорость ветра в м/с - средняя за 10 мин, порывы в срок и между сроками (в фигурных скобках) и направление, откуда дует ветер: С - северный, СВ - северо-восточный, В - восточный, ЮВ - юго-восточный, Ю - южный, ЮЗ - юго-западный, З - западный, СЗ - северо-западный.
Видимость - горизонтальная дальность видимости в метрах или километрах. При видимости от 1 до 10 км при отсутствии осадков обычно наблюдается дымка, при ухудшении видимости до 1 км и менее - туман. В сухую погоду видимость может ухудшаться дымом, пылью или мглою.
Явления - указаны атмосферные явления, наблюдавшиеся в срок или в последний час перед сроком; фигурными скобками обозначены явления, наблюдавшиеся между сроками (за 1-3 часа до срока); квадратными скобками обозначены град или гололедные отложения с указанием их диаметра в мм.
Облачность - указаны через наклонную черту общая и нижняя облачность в баллах и высота нижней границы облаков в метрах; квадратными скобками обозначены формы облаков: Ci - перистые, Cs - перисто-слоистые, Cc - перисто-кучевые, Ac - высококучевые, As - высокослоистые, Sc - слоисто-кучевые, Ns - слоисто-дождевые, Cu - кучевые, Cb - кучево-дождевые. Подробнее классификацию облаков см. в Атласе облаков (PDF).
T - Температура воздуха - температура, измеренная на высоте 2 м над землей.
Td - Температура точки росы - температура, при понижении до которой содержащийся в воздухе водяной пар достигнет насыщения.
f - Относительная влажность воздуха - влажноcть воздуха, измеренная на высоте 2 м над землей.
Te - Эффективная температура - температура, которую ощущает одетый по сезону человек в тени. Характеристика душности погоды. При расчете учитывается влияние влажности воздуха и скорости ветра на теплоощущения человека.
Tes - Эффективная температура на солнце - температура, которую ощущает человек, с поправкой на солнечный нагрев. Характеристика знойности погоды. Зависит от высоты солнца над горизонтом, облачности и скорости ветра. Ночью, в пасмурную погоду, а также при ветре 12 м/с и более поправка равна нулю.
P - Атмосферное давление - приведенное к уровню моря атмосферное давление.
Po - Атмосферное давление - измеренное на уровне метеостанции атмосферное давление.
Tmin - Минимальная температура - минимум температуры воздуха на высоте 2 м над землей.
Tmax - Максимальная температура - максимум температуры воздуха на высоте 2 м над землей.
R - Количество осадков - Количество выпавших осадков за период времени, мм. При наведении курсора мыши на число - период времени, за который выпало указанное количество осадков.
R24 - Количество осадков - Количество выпавших осадков за 24 часа, мм.
S - Снежный покров - Высота снежного покрова, см. При наведении курсора мыши на число - состояние снежного покрова и степень покрытия местности в баллах.